Fresno, CA

4:28 PM PST on November 12, 2019 (GMT -0800)
Fresno Yosemite International

Weather History for KFAT - September, 2019

Change the Weather History Date:

Saturday, September 14, 2019

  Actual Average Record
Temperature  
Mean Temperature 86 °F 77 °F  
Max Temperature 103 °F 92 °F 106 °F (2012)
Min Temperature 68 °F 62 °F 47 °F (1903)
Degree Days  
Heating Degree Days 0    
Month to date heating degree days 0  
Since 1 July heating degree days 0  
Cooling Degree Days 21    
Month to date cooling degree days 235  
Year to date cooling degree days 2176  
Growing Degree Days 35 (Base 50)    
Moisture  
Dew Point 47 °F    
Average Humidity 33    
Maximum Humidity 53    
Minimum Humidity 12    
Precipitation  
Precipitation 0.00 in 0.01 in 0.27 in (1910)
Month to date precipitation 0.00 0.05  
Year to date precipitation 9.52 7.91  
Snow  
Snow 0.00 in - - ()
Month to date snowfall 0.0  
Since 1 July snowfall 0.0  
Since 1 September snowfall 0.0  
Snow Depth 0.00 in    
Sea Level Pressure  
Sea Level Pressure 29.88 in    
Wind  
Wind Speed 4 mph (ENE)    
Max Wind Speed 10 mph    
Max Gust Speed 12 mph    
Visibility 10 miles    
Events      
T = Trace of Precipitation, MM = Missing Value Source: NWS Daily Summary

Daily Weather History Graph

Daily Weather History Graph

Search for Another Location

Airport or City:

Astronomy

Sep. 14, 2019 Rise Set
Actual Time 6:40 AM PDT 7:08 PM PDT
Civil Twilight 6:14 AM PDT 7:34 PM PDT
Nautical Twilight 5:43 AM PDT 8:04 PM PDT
Astronomical Twilight 5:12 AM PDT 8:35 PM PDT
Moon 7:51 PM PDT (9/14) 6:59 AM PDT (9/14)
Length of Visible Light 13h 19m
Length of Day
12h 27m
Full, 100% of the Moon is Illuminated
Sep 14
Full
Sep 21
Last Quarter
Sep 28
New
Oct 5
First Quarter
Oct 13
Full

Hourly Weather History & Observations

Time (PDT) Temp. Dew Point Humidity Pressure Visibility Wind Dir Wind Speed Gust Speed Precip Events Conditions
12:53 AM 75.9 °F 48.0 °F 37% 29.92 in 10.0 mi Calm Calm - N/A   Mostly Cloudy
1:53 AM 73.9 °F 50.0 °F 43% 29.93 in 10.0 mi NW 4.6 mph - N/A   Mostly Cloudy
2:53 AM 72.0 °F 48.9 °F 44% 29.92 in 10.0 mi Calm Calm - N/A   Mostly Cloudy
3:53 AM 70.0 °F 46.9 °F 44% 29.92 in 10.0 mi East 3.5 mph - N/A   Mostly Cloudy
4:53 AM 71.1 °F 54.0 °F 55% 29.92 in 10.0 mi East 4.6 mph - N/A   Mostly Cloudy
5:53 AM 69.1 °F 52.0 °F 54% 29.93 in 10.0 mi ESE 4.6 mph - N/A   Mostly Cloudy
6:53 AM 70.0 °F 48.9 °F 47% 29.94 in 10.0 mi ESE 3.5 mph - N/A   Mostly Cloudy
7:53 AM 73.0 °F 48.9 °F 42% 29.95 in 10.0 mi Calm Calm - N/A   Scattered Clouds
8:53 AM 78.1 °F 48.9 °F 36% 29.96 in 10.0 mi SE 4.6 mph - N/A   Scattered Clouds
9:53 AM 84.0 °F 48.0 °F 28% 29.95 in 10.0 mi SE 8.1 mph - N/A   Scattered Clouds
10:53 AM 87.1 °F 48.9 °F 27% 29.94 in 10.0 mi SE 6.9 mph - N/A   Partly Cloudy
11:53 AM 91.0 °F 50.0 °F 24% 29.93 in 10.0 mi SSE 6.9 mph - N/A   Partly Cloudy
12:53 PM 95.0 °F 51.1 °F 22% 29.91 in 10.0 mi South 6.9 mph - N/A   Partly Cloudy
1:53 PM 98.1 °F 44.1 °F 16% 29.88 in 10.0 mi NE 4.6 mph - N/A   Partly Cloudy
2:53 PM 100.0 °F 41.0 °F 13% 29.86 in 10.0 mi North 3.5 mph - N/A   Partly Cloudy
3:53 PM 100.9 °F 39.9 °F 12% 29.83 in 10.0 mi Variable 4.6 mph - N/A   Partly Cloudy
4:53 PM 102.0 °F 39.0 °F 11% 29.82 in 10.0 mi NNW 5.8 mph - N/A   Clear
5:53 PM 100.9 °F 39.0 °F 12% 29.81 in 10.0 mi NNW 5.8 mph - N/A   Clear
6:53 PM 98.1 °F 37.9 °F 12% 29.81 in 10.0 mi NNW 4.6 mph - N/A   Partly Cloudy
7:53 PM 91.0 °F 48.9 °F 23% 29.81 in 10.0 mi WNW 5.8 mph - N/A   Partly Cloudy
8:53 PM 89.1 °F 48.0 °F 24% 29.82 in 10.0 mi WNW 3.5 mph - N/A   Clear
9:53 PM 84.0 °F 48.0 °F 28% 29.83 in 10.0 mi NNE 4.6 mph - N/A   Clear
10:53 PM 81.0 °F 48.0 °F 31% 29.83 in 10.0 mi Calm Calm - N/A   Partly Cloudy
11:53 PM 79.0 °F 46.9 °F 32% 29.83 in 10.0 mi ENE 3.5 mph - N/A   Partly Cloudy